Regional Weather Roundup
Issued by NWS Goodland, KS

Home | Current Version | Previous Version | Text Only | Print | Product List | Glossary Off
Versions: 1 2 3 4 5 6 7 8 9 10 11 12 13 14 15 16 17 18 19 20 21 22 23 24 25 26 27 28 29 30 31 32 33 34 35 36 37 38 39 40 41 42 43 44 45 46 47 48 49 50

000
ASUS43 KGLD 230959
RWRGLD

GOODLAND FORECAST AREA HOURLY WEATHER ROUNDUP
NATIONAL WEATHER SERVICE GOODLAND KS
400 AM MDT SAT JUL 23 2016

...OFFICIAL OBSERVATIONS...

CITY           SKY/WX    TMP DP  RH WIND       PRES   REMARKS
GOODLAND KS    CLOUDY    68  66  93 E8        29.96F
HILL CITY KS   CLOUDY    74  67  78 SE5       29.97F
IMPERIAL NEB   CLOUDY    72  63  73 S9        29.92R
MCCOOK NEB     CLOUDY    71  67  87 E8        29.93S
AKRON CO       CLOUDY    69  61  75 S8        30.04F
BURLINGTON CO  CLOUDY    69  60  73 NE6       30.00S
LIMON CO       CLEAR     64  49  57 NW7       30.09F
$$

...UNOFFICIAL OBSERVATIONS...

CITY           SKY/WX    TMP DP  RH WIND       PRES   REMARKS
COLBY KS       CLEAR     70  70 100 E15       29.95F
LENORA KS        N/A     71  32  23 MISG        N/A
NORTON KS      MOCLDY    70  64  83 NE3       29.94F
$$



USA.gov is the U.S. government's official web portal to all federal, state and local government web resources and services.